Hermosillo, México

2:54 AM MST en Diciembre 17, 2018 (GMT -0700)
Gen Ignacio Pesqueira Garcia

Tiempo Historia de MMHO - Octubre, 2018

Change the Weather History Date:

Jueves, Octubre 11, 2018

  Actual Average Record
Temperature  
Temperatura media 73 ° F -  
Temperatura máxima 80 ° F 87 ° F 105 ° F (1999)
Temperatura mínima 66 ° F 60 ° F 58 ° F (2013)
Cooling Degree Days 8    
Growing Degree Days 23 (Base 50)    
Moisture  
Punto de rocío 68 ° F    
Average Humidity 81    
Maximum Humidity 100    
Minimum Humidity 60    
Precipitación  
Precipitación 0.75 pul - - ()
Presión al nivel del mar  
Presión al nivel del mar 29.87 pul    
Viento  
Velocidad del viento 5 mph ()    
Velocidad máxima del viento 12 mph    
Max Gust Speed -    
Visibilidad 7.9 Millas    
Eventos Lluvia    
Averages and records for this station are not official NWS values.
T = Trace of Precipitation, MM = Missing Value Source: Averaged Metar Reports

Daily Weather History Graph

Daily Weather History Graph

Search for Another Location

Airport or City:

Astronomía

Oct. 11, 2018 Salida Puesta
Hora real 7:23 AM MDT 6:58 PM MDT
Crepúsculo civil 6:59 AM MDT 7:22 PM MDT
Crepúsculo náutico 6:31 AM MDT 7:49 PM MDT
Crepúsculo astronómico 6:04 AM MDT 8:17 PM MDT
Luna 9:50 AM MDT (10/11) 9:07 PM MDT (10/11)
Horas de luz 12h 22m
Horas de luz
11h 35m
Creciente, 8% of the Moon is Illuminated
Oct 11
Creciente
Oct 16
Cuarto creciente
Oct 24
Luna llena
Oct 31
Cuarto menguante
Nov 7
Nueva

Hourly Weather History & Observations

Hora (MDT) Temp. Índice de calor Punto de rocío Humedad Presión Visibilidad Wind Dir Velocidad del viento Velocidad de ráfagas Precip Eventos Condiciones
12:46 AM 75.2 ° F - 66.2 ° F 73% 29.84 pul 10.0 mi Este 5.8 mph - N/A   Despejado
1:56 AM 75.2 ° F - 66.2 ° F 73% 29.85 pul 10.0 mi Este 4.6 mph - N/A   Despejado
2:42 AM 75.2 ° F - 66.2 ° F 73% 29.84 pul 10.0 mi Este 3.5 mph - N/A   Despejado
3:43 AM 75.2 ° F - 68.0 ° F 78% 29.85 pul 10.0 mi ESE 4.6 mph - N/A   Nubes dispersas
5:00 AM 75.2 ° F - 66.2 ° F 73% 29.83 pul 10.0 mi Este 4.6 mph - N/A   Nubes dispersas
5:43 AM 75.2 ° F - 66.2 ° F 73% 29.83 pul 10.0 mi Este 5.8 mph - N/A   Nubes dispersas
6:45 AM 75.2 ° F - 66.2 ° F 73% 29.85 pul 10.0 mi Este 4.6 mph - N/A   Nubes dispersas
7:45 AM 75.2 ° F - 64.4 ° F 69% 29.86 pul 10.0 mi Este 8.1 mph - N/A   Muy nublado
8:40 AM 67 ° F - 65 ° F 93% 29.75 pul 5 mi NNE 6.7 mph - - Lluvia Llovizna débil
8:44 AM 77.0 ° F - 66.2 ° F 69% 29.87 pul 10.0 mi Este 6.9 mph - N/A   Nublado
8:45 AM 73 ° F - 65 ° F 69% 29.86 pul 7 mi NNE 2.2 mph - -   Muy nublado
9:47 AM 78.8 ° F - 66.2 ° F 65% 29.90 pul 10.0 mi Este 5.8 mph - N/A   Nublado
10:41 AM 80.6 ° F 83.2 ° F 68.0 ° F 65% 29.91 pul 10.0 mi SE 8.1 mph - N/A   Nublado
11:42 AM 80.6 ° F 83.2 ° F 68.0 ° F 65% 29.90 pul 10.0 mi SSE 9.2 mph - N/A   Nublado
11:45 AM 79 ° F - 67 ° F 60% 29.88 pul 7 mi SSE 2.2 mph - -   Muy nublado
12:42 PM 75.2 ° F - 71.6 ° F 89% 29.91 pul 7.0 mi OSO 3.5 mph - N/A Lluvia Lluvia débil
1:40 PM 73.4 ° F - 71.6 ° F 94% 29.90 pul 5.0 mi Sin viento Sin viento - N/A Lluvia Lluvia débil
2:40 PM 75.2 ° F - 71.6 ° F 89% 29.88 pul 8.0 mi Sin viento Sin viento - N/A   Nublado
2:45 PM 74 ° F - 71 ° F 86% 29.85 pul 7 mi OSO 2.2 mph - - Lluvia Llovizna débil
3:09 PM 75.2 ° F - 73.4 ° F 94% 29.89 pul 5.0 mi Sin viento Sin viento - N/A Lluvia Lluvia débil
3:40 PM 75.2 ° F - 73.4 ° F 94% 29.88 pul 5.0 mi Norte 3.5 mph - N/A   Nublado
4:40 PM 75.2 ° F - 73.4 ° F 94% 29.88 pul 8.0 mi Sin viento Sin viento - N/A   Nublado
5:06 PM 75.2 ° F - 73.4 ° F 94% 29.89 pul 8.0 mi Sin viento Sin viento - N/A Lluvia Lluvia débil
5:40 PM 73.4 ° F - 73.4 ° F 100% 29.88 pul 8.0 mi Sin viento Sin viento - N/A Lluvia Lluvia débil
6:00 PM 72 ° F - 69 ° F 88% 29.84 pul 7 mi NE 2.2 mph - -   Muy nublado
6:40 PM 73.4 ° F - 69.8 ° F 88% 29.86 pul 8.0 mi NE 10.4 mph - N/A   Nublado
7:21 PM 73.4 ° F - 69.8 ° F 88% 29.90 pul 8.0 mi Este 5.8 mph - N/A Lluvia Lluvia débil
7:40 PM 73.4 ° F - 69.8 ° F 88% 29.88 pul 5.0 mi ENE 9.2 mph - N/A Lluvia Lluvia
8:40 PM 73.4 ° F - 69.8 ° F 88% 29.89 pul 5.0 mi ENE 11.5 mph - N/A Lluvia Lluvia
8:45 PM 69 ° F - 63 ° F 74% 29.87 pul 5 mi NNE 4.5 mph - - Lluvia Llovizna débil
9:21 PM 73.4 ° F - 68.0 ° F 83% 29.87 pul 8.0 mi ENE 10.4 mph - N/A   Nublado
9:40 PM 73.4 ° F - 68.0 ° F 83% 29.87 pul 8.0 mi Este 10.4 mph - N/A   Nublado
10:40 PM 73.4 ° F - 68.0 ° F 83% 29.87 pul 8.0 mi NE 9.2 mph - N/A   Nublado
11:08 PM 73.4 ° F - 66.2 ° F 78% 29.86 pul 8.0 mi ENE 11.5 mph - N/A Lluvia Lluvia débil
11:40 PM 73.4 ° F - 68.0 ° F 83% 29.86 pul 5.0 mi Este 3.5 mph - N/A Lluvia Lluvia